| time (UTC) | temp F | wind direction | speed MPH | gust MPH | rain 1hr in | rain 24hr in | rain mn in | humidity % | barometer mb |
| 20260504160135 | 69 | 180 | 3.0 | 9.0 | 0.00 | 0.00 | 0.00 | 57 | 1012.0 |
| 20260504151022 | 63 | 184 | 4.0 | 12.0 | 0.00 | 0.00 | 0.00 | 64 | 1012.6 |
| 20260504150526 | 63 | 194 | 5.0 | 12.0 | 0.00 | 0.00 | 0.00 | 64 | 1013.0 |
| 20260504150154 | 63 | 306 | 3.0 | 9.0 | 0.00 | 0.00 | 0.00 | 66 | 1013.3 |
| 20260504141045 | 58 | 171 | 2.0 | 8.0 | 0.00 | 0.00 | 0.00 | 75 | 1013.6 |
| 20260504140538 | 57 | 128 | 3.0 | 10.0 | 0.00 | 0.00 | 0.00 | 77 | 1013.8 |
| 20260504140200 | 56 | 201 | 2.0 | 6.0 | 0.00 | 0.00 | 0.00 | 79 | 1013.8 |
| 20260504130535 | 56 | 210 | 3.0 | 11.0 | 0.00 | 0.00 | 0.00 | 66 | 1013.9 |
| 20260504130147 | 56 | 171 | 5.0 | 10.0 | 0.00 | 0.00 | 0.00 | 65 | 1013.5 |
| 20260504120128 | 55 | 332 | 3.0 | 7.0 | 0.00 | 0.00 | 0.00 | 61 | 1013.4 |
| 20260504110527 | 49 | 239 | 0.0 | 3.0 | 0.00 | 0.00 | 0.00 | 72 | 1013.0 |
| 20260504110225 | 49 | 226 | 1.0 | 4.0 | 0.00 | 0.00 | 0.00 | 74 | 1013.1 |
| 20260504100547 | 46 | 195 | 0.0 | 2.0 | 0.00 | 0.00 | 0.00 | 79 | 1013.2 |
| 20260504100130 | 46 | 195 | 0.0 | 2.0 | 0.00 | 0.00 | 0.00 | 81 | 1012.9 |
| 20260504090130 | 43 | 279 | 0.0 | 1.0 | 0.00 | 0.00 | 0.00 | 87 | 1013.6 |
| 20260504081639 | 43 | 279 | 0.0 | 1.0 | 0.00 | 0.00 | 0.00 | 85 | 1013.7 |
| 20260504081028 | 43 | 279 | 0.0 | 0.0 | 0.00 | 0.00 | 0.00 | 85 | 1013.7 |
| 20260504080517 | 44 | 279 | 0.0 | 1.0 | 0.00 | 0.00 | 0.00 | 84 | 1013.5 |
| 20260504080132 | 44 | 279 | 0.0 | 1.0 | 0.00 | 0.00 | 0.00 | 83 | 1013.5 |
| 20260504070220 | 46 | 205 | 0.0 | 2.0 | 0.00 | 0.00 | 0.00 | 82 | 1014.3 |
| 20260504060147 | 49 | 119 | 0.0 | 2.0 | 0.00 | 0.00 | 0.00 | 78 | 1014.8 |
| 20260504050525 | 50 | 259 | 3.0 | 6.0 | 0.00 | 0.00 | 0.00 | 74 | 1014.8 |
| 20260504050159 | 49 | 232 | 3.0 | 5.0 | 0.00 | 0.00 | 0.00 | 78 | 1014.9 |
| 20260504045527 | 49 | 163 | 2.0 | 5.0 | 0.00 | 0.00 | 0.00 | 79 | 1015.0 |
| 20260504045031 | 49 | 229 | 2.0 | 4.0 | 0.00 | 0.00 | 0.00 | 79 | 1015.2 |
| 20260504044617 | 49 | 200 | 1.0 | 3.0 | 0.00 | 0.00 | 0.00 | 79 | 1015.2 |
| 20260504044036 | 49 | 223 | 1.0 | 4.0 | 0.00 | 0.00 | 0.00 | 79 | 1015.3 |
| 20260504043526 | 49 | 197 | 2.0 | 4.0 | 0.00 | 0.00 | 0.00 | 79 | 1015.3 |
| 20260504043131 | 49 | 195 | 1.0 | 3.0 | 0.00 | 0.00 | 0.00 | 79 | 1015.3 |
| 20260504042542 | 49 | 179 | 1.0 | 3.0 | 0.00 | 0.00 | 0.00 | 79 | 1015.3 |
| 20260504042021 | 49 | 204 | 0.0 | 2.0 | 0.00 | 0.00 | 0.00 | 79 | 1015.6 |
| 20260504041631 | 49 | 259 | 1.0 | 2.0 | 0.00 | 0.00 | 0.00 | 80 | 1015.6 |
| 20260504041024 | 49 | 180 | 0.0 | 1.0 | 0.00 | 0.00 | 0.00 | 80 | 1015.6 |
| 20260504040545 | 50 | 180 | 0.0 | 1.0 | 0.00 | 0.00 | 0.00 | 80 | 1015.6 |
| 20260504040139 | 50 | 180 | 0.0 | 0.0 | 0.00 | 0.00 | 0.00 | 80 | 1015.6 |
| 20260504035537 | 50 | 180 | 0.0 | 0.0 | 0.00 | 0.00 | 0.00 | 79 | 1015.6 |
| 20260504035021 | 50 | 180 | 0.0 | 0.0 | 0.00 | 0.00 | 0.00 | 79 | 1015.7 |
| 20260504034640 | 50 | 180 | 0.0 | 0.0 | 0.00 | 0.00 | 0.00 | 78 | 1015.7 |
| 20260504034035 | 50 | 180 | 0.0 | 1.0 | 0.00 | 0.00 | 0.00 | 79 | 1015.6 |
| 20260504033526 | 50 | 180 | 0.0 | 1.0 | 0.00 | 0.00 | 0.00 | 77 | 1015.4 |
| 20260504033121 | 50 | 200 | 0.0 | 1.0 | 0.00 | 0.00 | 0.00 | 76 | 1015.5 |
| 20260504032519 | 50 | 200 | 0.0 | 1.0 | 0.00 | 0.00 | 0.00 | 76 | 1015.5 |
| 20260504032035 | 51 | 200 | 0.0 | 2.0 | 0.00 | 0.00 | 0.00 | 76 | 1015.4 |
| 20260504031625 | 51 | 218 | 0.0 | 4.0 | 0.00 | 0.00 | 0.00 | 73 | 1015.5 |
| 20260504031046 | 51 | 202 | 1.0 | 4.0 | 0.00 | 0.00 | 0.00 | 72 | 1015.4 |
| 20260504030540 | 51 | 76 | 0.0 | 1.0 | 0.00 | 0.00 | 0.00 | 73 | 1015.5 |
| 20260504030143 | 51 | 76 | 0.0 | 2.0 | 0.00 | 0.00 | 0.00 | 72 | 1015.7 |
| 20260504025542 | 51 | 76 | 0.0 | 2.0 | 0.00 | 0.00 | 0.00 | 71 | 1015.6 |
| 20260504025025 | 52 | 124 | 0.0 | 1.0 | 0.00 | 0.00 | 0.00 | 71 | 1015.7 |
| 20260504024625 | 52 | 143 | 0.0 | 2.0 | 0.00 | 0.00 | 0.00 | 69 | 1015.8 |
| 20260504024031 | 51 | 156 | 0.0 | 2.0 | 0.00 | 0.00 | 0.00 | 68 | 1015.7 |
| 20260504023547 | 51 | 156 | 0.0 | 2.0 | 0.00 | 0.00 | 0.00 | 68 | 1015.6 |
| 20260504023139 | 52 | 152 | 0.0 | 0.0 | 0.00 | 0.00 | 0.00 | 69 | 1015.7 |
| 20260504022532 | 52 | 152 | 0.0 | 0.0 | 0.00 | 0.00 | 0.00 | 69 | 1015.4 |
| 20260504022024 | 52 | 152 | 0.0 | 1.0 | 0.00 | 0.00 | 0.00 | 69 | 1015.5 |
| 20260504021610 | 52 | 152 | 0.0 | 2.0 | 0.00 | 0.00 | 0.00 | 67 | 1015.2 |
| 20260504021033 | 52 | 167 | 0.0 | 3.0 | 0.00 | 0.00 | 0.00 | 66 | 1015.2 |
| 20260504020520 | 52 | 166 | 0.0 | 2.0 | 0.00 | 0.00 | 0.00 | 66 | 1015.2 |
| 20260504020141 | 52 | 182 | 0.0 | 2.0 | 0.00 | 0.00 | 0.00 | 64 | 1015.2 |
| 20260504015533 | 53 | 222 | 0.0 | 2.0 | 0.00 | 0.00 | 0.00 | 66 | 1015.2 |
| 20260504015028 | 52 | 247 | 0.0 | 2.0 | 0.00 | 0.00 | 0.00 | 63 | 1015.1 |
| 20260504014634 | 52 | 234 | 0.0 | 2.0 | 0.00 | 0.00 | 0.00 | 63 | 1014.7 |
| 20260504014032 | 52 | 217 | 1.0 | 2.0 | 0.00 | 0.00 | 0.00 | 64 | 1014.9 |
| 20260504013548 | 52 | 186 | 0.0 | 3.0 | 0.00 | 0.00 | 0.00 | 64 | 1014.7 |
| 20260504013142 | 52 | 211 | 1.0 | 2.0 | 0.00 | 0.00 | 0.00 | 64 | 1014.6 |
| 20260504012533 | 52 | 131 | 0.0 | 1.0 | 0.00 | 0.00 | 0.00 | 64 | 1014.6 |
| 20260504012025 | 52 | 131 | 0.0 | 1.0 | 0.00 | 0.00 | 0.00 | 65 | 1015.1 |
| 20260504011622 | 53 | 131 | 0.0 | 1.0 | 0.00 | 0.00 | 0.00 | 64 | 1014.9 |
| 20260504011044 | 53 | 131 | 0.0 | 3.0 | 0.00 | 0.00 | 0.00 | 64 | 1014.9 |
| 20260504010523 | 53 | 148 | 0.0 | 3.0 | 0.00 | 0.00 | 0.00 | 62 | 1014.7 |
| 20260504010151 | 53 | 172 | 2.0 | 3.0 | 0.00 | 0.00 | 0.00 | 62 | 1015.1 |
| 20260504005529 | 53 | 178 | 2.0 | 3.0 | 0.00 | 0.00 | 0.00 | 63 | 1015.0 |
| 20260504005043 | 53 | 159 | 0.0 | 2.0 | 0.00 | 0.00 | 0.00 | 62 | 1015.1 |
| 20260504004637 | 53 | 98 | 0.0 | 1.0 | 0.00 | 0.00 | 0.00 | 62 | 1015.2 |
| 20260504004023 | 54 | 76 | 0.0 | 1.0 | 0.00 | 0.00 | 0.00 | 62 | 1015.2 |
| 20260504003547 | 54 | 76 | 0.0 | 1.0 | 0.00 | 0.00 | 0.00 | 62 | 1015.0 |
| 20260504003142 | 54 | 76 | 0.0 | 1.0 | 0.00 | 0.00 | 0.00 | 60 | 1015.2 |
| 20260504002541 | 55 | 76 | 0.0 | 1.0 | 0.00 | 0.00 | 0.00 | 61 | 1015.0 |
| 20260504002021 | 55 | 76 | 0.0 | 0.0 | 0.00 | 0.00 | 0.00 | 58 | 1015.0 |
| 20260504001653 | 56 | 76 | 0.0 | 1.0 | 0.00 | 0.00 | 0.00 | 56 | 1015.1 |
| 20260504001040 | 56 | 76 | 0.0 | 1.0 | 0.00 | 0.00 | 0.00 | 57 | 1015.1 |
| 20260504000541 | 56 | 76 | 0.0 | 1.0 | 0.00 | 0.00 | 0.00 | 54 | 1015.1 |
| 20260504000211 | 57 | 76 | 0.0 | 1.0 | 0.00 | 0.00 | 0.00 | 55 | 1015.1 |
| 20260503235522 | 57 | 76 | 0.0 | 1.0 | 0.00 | 0.00 | 0.00 | 53 | 1015.0 |
| 20260503235024 | 58 | 117 | 0.0 | 1.0 | 0.00 | 0.00 | 0.00 | 53 | 1015.1 |
| 20260503234640 | 58 | 134 | 0.0 | 1.0 | 0.00 | 0.00 | 0.00 | 53 | 1014.8 |
| 20260503234042 | 59 | 173 | 0.0 | 2.0 | 0.00 | 0.00 | 0.00 | 48 | 1014.9 |
| 20260503233535 | 61 | 181 | 0.0 | 2.0 | 0.00 | 0.00 | 0.00 | 43 | 1015.0 |
| 20260503233122 | 61 | 227 | 1.0 | 3.0 | 0.00 | 0.00 | 0.00 | 35 | 1015.0 |
| 20260503232532 | 62 | 180 | 1.0 | 4.0 | 0.00 | 0.00 | 0.00 | 35 | 1014.9 |
| 20260503232025 | 62 | 210 | 2.0 | 5.0 | 0.00 | 0.00 | 0.00 | 32 | 1015.2 |
| 20260503231710 | 62 | 179 | 1.0 | 5.0 | 0.00 | 0.00 | 0.00 | 35 | 1015.2 |
| 20260503231045 | 62 | 178 | 2.0 | 4.0 | 0.00 | 0.00 | 0.00 | 34 | 1015.3 |
| 20260503230530 | 62 | 213 | 0.0 | 3.0 | 0.00 | 0.00 | 0.00 | 34 | 1015.2 |
| 20260503230219 | 62 | 214 | 1.0 | 4.0 | 0.00 | 0.00 | 0.00 | 34 | 1015.3 |
| 20260503225534 | 62 | 210 | 1.0 | 4.0 | 0.00 | 0.00 | 0.00 | 32 | 1015.3 |
| 20260503225023 | 62 | 248 | 1.0 | 8.0 | 0.00 | 0.00 | 0.00 | 32 | 1015.4 |
| 20260503224643 | 62 | 262 | 1.0 | 8.0 | 0.00 | 0.00 | 0.00 | 31 | 1015.7 |
| 20260503224036 | 63 | 215 | 3.0 | 6.0 | 0.00 | 0.00 | 0.00 | 30 | 1015.3 |
| 20260503223540 | 63 | 246 | 2.0 | 7.0 | 0.00 | 0.00 | 0.00 | 31 | 1015.4 |
| 20260503223135 | 63 | 242 | 2.0 | 9.0 | 0.00 | 0.00 | 0.00 | 31 | 1015.7 |
| 20260503222542 | 63 | 178 | 4.0 | 9.0 | 0.00 | 0.00 | 0.00 | 30 | 1015.7 |
| 20260503222039 | 63 | 226 | 3.0 | 7.0 | 0.00 | 0.00 | 0.00 | 31 | 1015.8 |
| 20260503221653 | 63 | 258 | 2.0 | 8.0 | 0.00 | 0.00 | 0.00 | 31 | 1015.6 |
| 20260503221023 | 63 | 246 | 2.0 | 7.0 | 0.00 | 0.00 | 0.00 | 30 | 1015.7 |
| 20260503220524 | 63 | 201 | 0.0 | 5.0 | 0.00 | 0.00 | 0.00 | 31 | 1015.6 |
| 20260503220129 | 63 | 191 | 2.0 | 10.0 | 0.00 | 0.00 | 0.00 | 30 | 1015.7 |
| 20260503215535 | 64 | 173 | 4.0 | 11.0 | 0.00 | 0.00 | 0.00 | 29 | 1015.9 |
| 20260503215021 | 64 | 182 | 0.0 | 9.0 | 0.00 | 0.00 | 0.00 | 29 | 1015.7 |
| 20260503214655 | 65 | 275 | 3.0 | 11.0 | 0.00 | 0.00 | 0.00 | 29 | 1015.8 |
| 20260503214040 | 65 | 198 | 2.0 | 11.0 | 0.00 | 0.00 | 0.00 | 28 | 1015.8 |
| 20260503213529 | 65 | 191 | 3.0 | 8.0 | 0.00 | 0.00 | 0.00 | 28 | 1015.7 |
| 20260503213210 | 65 | 180 | 4.0 | 8.0 | 0.00 | 0.00 | 0.00 | 28 | 1015.7 |
| 20260503212543 | 65 | 231 | 3.0 | 8.0 | 0.00 | 0.00 | 0.00 | 29 | 1015.9 |
| 20260503212033 | 64 | 188 | 2.0 | 11.0 | 0.00 | 0.00 | 0.00 | 28 | 1016.1 |
| 20260503211707 | 66 | 242 | 2.0 | 8.0 | 0.00 | 0.00 | 0.00 | 29 | 1015.9 |
| 20260503211037 | 65 | 150 | 3.0 | 9.0 | 0.00 | 0.00 | 0.00 | 29 | 1016.0 |
| 20260503210524 | 63 | 249 | 1.0 | 8.0 | 0.00 | 0.00 | 0.00 | 29 | 1015.9 |
| 20260503210153 | 65 | 258 | 4.0 | 10.0 | 0.00 | 0.00 | 0.00 | 30 | 1016.0 |
| 20260503205536 | 64 | 177 | 3.0 | 10.0 | 0.00 | 0.00 | 0.00 | 29 | 1016.1 |
| 20260503205031 | 65 | 180 | 3.0 | 9.0 | 0.00 | 0.00 | 0.00 | 28 | 1016.2 |
| 20260503204703 | 66 | 202 | 4.0 | 8.0 | 0.00 | 0.00 | 0.00 | 27 | 1016.2 |
| 20260503204035 | 65 | 249 | 2.0 | 11.0 | 0.00 | 0.00 | 0.00 | 29 | 1016.2 |
| 20260503203525 | 64 | 295 | 3.0 | 11.0 | 0.00 | 0.00 | 0.00 | 32 | 1016.3 |
| 20260503203211 | 65 | 263 | 3.0 | 7.0 | 0.00 | 0.00 | 0.00 | 28 | 1016.2 |
| 20260503202540 | 66 | 211 | 1.0 | 7.0 | 0.00 | 0.00 | 0.00 | 29 | 1016.3 |
| 20260503202039 | 65 | 237 | 4.0 | 14.0 | 0.00 | 0.00 | 0.00 | 29 | 1016.6 |
| 20260503201646 | 65 | 198 | 6.0 | 14.0 | 0.00 | 0.00 | 0.00 | 28 | 1016.5 |
| 20260503201038 | 66 | 191 | 3.0 | 8.0 | 0.00 | 0.00 | 0.00 | 26 | 1016.7 |
| 20260503200521 | 65 | 265 | 2.0 | 9.0 | 0.00 | 0.00 | 0.00 | 29 | 1016.7 |
| 20260503200218 | 64 | 138 | 3.0 | 6.0 | 0.00 | 0.00 | 0.00 | 29 | 1017.0 |
| 20260503195532 | 62 | 82 | 1.0 | 9.0 | 0.00 | 0.00 | 0.00 | 29 | 1016.8 |
| 20260503195030 | 64 | 211 | 4.0 | 14.0 | 0.00 | 0.00 | 0.00 | 28 | 1017.1 |
| 20260503194657 | 64 | 238 | 5.0 | 14.0 | 0.00 | 0.00 | 0.00 | 29 | 1017.2 |
| 20260503194043 | 65 | 277 | 2.0 | 10.0 | 0.00 | 0.00 | 0.00 | 29 | 1017.0 |
| 20260503193540 | 65 | 329 | 3.0 | 9.0 | 0.00 | 0.00 | 0.00 | 28 | 1017.4 |
| 20260503193156 | 65 | 211 | 4.0 | 8.0 | 0.00 | 0.00 | 0.00 | 28 | 1017.2 |
| 20260503192521 | 65 | 63 | 3.0 | 8.0 | 0.00 | 0.00 | 0.00 | 28 | 1017.3 |
| 20260503192027 | 65 | 167 | 3.0 | 6.0 | 0.00 | 0.00 | 0.00 | 27 | 1017.5 |
| 20260503191631 | 63 | 142 | 2.0 | 9.0 | 0.00 | 0.00 | 0.00 | 29 | 1017.6 |
| 20260503191024 | 65 | 255 | 1.0 | 9.0 | 0.00 | 0.00 | 0.00 | 28 | 1017.7 |
| 20260503190531 | 64 | 159 | 1.0 | 11.0 | 0.00 | 0.00 | 0.00 | 29 | 1017.8 |
| 20260503190140 | 65 | 223 | 3.0 | 11.0 | 0.00 | 0.00 | 0.00 | 28 | 1018.1 |
| 20260503185540 | 64 | 219 | 4.0 | 8.0 | 0.00 | 0.00 | 0.00 | 30 | 1018.2 |
| 20260503185024 | 63 | 300 | 1.0 | 9.0 | 0.00 | 0.00 | 0.00 | 30 | 1018.1 |
| 20260503184657 | 64 | 213 | 4.0 | 9.0 | 0.00 | 0.00 | 0.00 | 29 | 1018.4 |
| 20260503184044 | 65 | 238 | 3.0 | 9.0 | 0.00 | 0.00 | 0.00 | 28 | 1018.3 |
| 20260503183540 | 65 | 154 | 6.0 | 9.0 | 0.00 | 0.00 | 0.00 | 27 | 1018.3 |
| 20260503183203 | 65 | 224 | 2.0 | 9.0 | 0.00 | 0.00 | 0.00 | 29 | 1018.3 |
| 20260503182536 | 64 | 188 | 3.0 | 6.0 | 0.00 | 0.00 | 0.00 | 28 | 1018.5 |
| 20260503182039 | 63 | 171 | 2.0 | 6.0 | 0.00 | 0.00 | 0.00 | 29 | 1018.5 |
| 20260503181710 | 63 | 87 | 2.0 | 6.0 | 0.00 | 0.00 | 0.00 | 30 | 1018.6 |
| 20260503181032 | 62 | 240 | 1.0 | 7.0 | 0.00 | 0.00 | 0.00 | 31 | 1018.6 |
| 20260503180537 | 64 | 220 | 2.0 | 7.0 | 0.00 | 0.00 | 0.00 | 30 | 1018.7 |
| 20260503180159 | 64 | 248 | 2.0 | 15.0 | 0.00 | 0.00 | 0.00 | 28 | 1018.8 |
| 20260503175523 | 64 | 206 | 5.0 | 15.0 | 0.00 | 0.00 | 0.00 | 29 | 1019.1 |
| 20260503175037 | 63 | 337 | 1.0 | 8.0 | 0.00 | 0.00 | 0.00 | 30 | 1018.9 |
| 20260503174757 | 62 | 260 | 4.0 | 8.0 | 0.00 | 0.00 | 0.00 | 30 | 1019.3 |
| 20260503174034 | 62 | 58 | 1.0 | 9.0 | 0.00 | 0.00 | 0.00 | 31 | 1019.4 |
| 20260503173536 | 63 | 231 | 3.0 | 9.0 | 0.00 | 0.00 | 0.00 | 33 | 1019.6 |
| 20260503173203 | 63 | 148 | 3.0 | 8.0 | 0.00 | 0.00 | 0.00 | 31 | 1019.4 |
| 20260503172535 | 64 | 145 | 4.0 | 8.0 | 0.00 | 0.00 | 0.00 | 30 | 1019.4 |
| 20260503172037 | 61 | 220 | 2.0 | 7.0 | 0.00 | 0.00 | 0.00 | 34 | 1019.5 |
| 20260503171701 | 61 | 117 | 1.0 | 7.0 | 0.00 | 0.00 | 0.00 | 31 | 1019.7 |
| 20260503171036 | 62 | 261 | 2.0 | 10.0 | 0.00 | 0.00 | 0.00 | 29 | 1019.7 |
| 20260503170520 | 63 | 171 | 3.0 | 10.0 | 0.00 | 0.00 | 0.00 | 31 | 1019.8 |
| 20260503170201 | 62 | 281 | 3.0 | 8.0 | 0.00 | 0.00 | 0.00 | 32 | 1019.8 |